,,,PA_Meas_PMT16A,,PR_Meas_QMR101_102,,RH_Meas_QMH101,,SR_Meas_QMS101,,TA_Meas_QMH101,,GenWind,,GenWind,
date,time,status,PA,status,PR,status,RH,status,SR,status,TA,status,DirAvg,status,SpdAvg,
2010-05-26, 00:00:05,VALID,1009.51,VALID,0,VALID,102.2,VALID,0,VALID,24.3742,VALID,141,VALID,0,
2010-05-26, 00:01:05,VALID,1009.52,VALID,0,VALID,102.147,VALID,0.105969,VALID,24.3761,VALID,153,VALID,1.14531,
2010-05-26, 00:02:05,VALID,1009.46,VALID,0,VALID,102.063,VALID,0.105969,VALID,24.3761,VALID,186,VALID,0.698828,
2010-05-26, 00:03:05,VALID,1009.4,VALID,0,VALID,102.01,VALID,0.105969,VALID,24.3547,VALID,186,VALID,0.305469,
2010-05-26, 00:04:05,VALID,1009.35,VALID,0,VALID,102.071,VALID,0,VALID,24.3761,VALID,186,VALID,0.123047,
2010-05-26, 00:05:05,VALID,1009.31,VALID,0,VALID,102.04,VALID,0,VALID,24.3547,VALID,186,VALID,0.614453,
2010-05-26, 00:06:05,VALID,1009.35,VALID,0,VALID,102.025,VALID,0,VALID,24.3566,VALID,186,VALID,0.745703,
2010-05-26, 00:07:05,VALID,1009.32,VALID,0,VALID,102.048,VALID,0,VALID,24.3566,VALID,186,VALID,0.926953,
2010-05-26, 00:08:05,VALID,1009.3,VALID,0,VALID,102.063,VALID,0.105969,VALID,24.3566,VALID,160,VALID,0.476563,
2010-05-26, 00:09:05,VALID,1009.34,VALID,0,VALID,102.094,VALID,0.105969,VALID,24.3352,VALID,164,VALID,0.541406,
2010-05-26, 00:10:05,VALID,1009.34,VALID,0,VALID,102.124,VALID,0.105969,VALID,24.3352,VALID,147,VALID,0.378906,
2010-05-26, 00:11:05,VALID,1009.37,VALID,0,VALID,102.147,VALID,0.105969,VALID,24.3352,VALID,143,VALID,0.325391,
2010-05-26, 00:12:05,VALID,1009.37,VALID,0,VALID,102.155,VALID,0,VALID,24.3371,VALID,120,VALID,0.442969,
2010-05-26, 00:13:05,VALID,1009.44,VALID,0,VALID,102.177,VALID,0.105969,VALID,24.3371,VALID,106,VALID,0.603125,
2010-05-26, 00:14:05,VALID,1009.45,VALID,0,VALID,102.223,VALID,0,VALID,24.3352,VALID,106,VALID,0.729688,
2010-05-26, 00:15:04,VALID,1009.44,VALID,0,VALID,102.254,VALID,0.105969,VALID,24.3566,VALID,105,VALID,0.517578,
2010-05-26, 00:16:04,VALID,1009.45,VALID,0,VALID,102.269,VALID,0,VALID,24.3761,VALID,81,VALID,0.461328,
2010-05-26, 00:17:04,VALID,1009.45,VALID,0,VALID,102.284,VALID,0,VALID,24.3761,VALID,87,VALID,0.354688,
2010-05-26, 00:18:04,VALID,1009.44,VALID,0,VALID,102.284,VALID,0,VALID,24.3956,VALID,116,VALID,0.338281,
2010-05-26, 00:19:04,VALID,1009.42,VALID,0,VALID,102.284,VALID,0,VALID,24.415,VALID,97,VALID,0.727734,
2010-05-26, 00:20:04,VALID,1009.41,VALID,0,VALID,102.269,VALID,0,VALID,24.4364,VALID,121,VALID,0.642578,
2010-05-26, 00:21:04,VALID,1009.42,VALID,0,VALID,102.238,VALID,0,VALID,24.454,VALID,90,VALID,0.216406,
2010-05-26, 00:22:04,VALID,1009.44,VALID,0,VALID,102.223,VALID,0,VALID,24.4754,VALID,90,VALID,0.212891,
2010-05-26, 00:23:04,VALID,1009.41,VALID,0,VALID,102.208,VALID,0,VALID,24.4949,VALID,141,VALID,0.69375,
2010-05-26, 00:24:04,VALID,1009.4,VALID,0,VALID,102.208,VALID,0,VALID,24.4735,VALID,141,VALID,0.441016,
2010-05-26, 00:25:04,VALID,1009.4,VALID,0,VALID,102.17,VALID,0,VALID,24.4949,VALID,141,VALID,0.228516,
2010-05-26, 00:26:04,VALID,1009.4,VALID,0,VALID,102.185,VALID,0,VALID,24.4949,VALID,140,VALID,0.6625,
2010-05-26, 00:27:04,VALID,1009.4,VALID,0,VALID,102.185,VALID,0,VALID,24.4735,VALID,135,VALID,0.248437,
2010-05-26, 00:28:04,VALID,1009.36,VALID,0,VALID,102.193,VALID,0,VALID,24.4754,VALID,135,VALID,0.517187,
2010-05-26, 00:29:04,VALID,1009.38,VALID,0,VALID,102.17,VALID,0,VALID,24.4559,VALID,138,VALID,0.557031,
2010-05-26, 00:30:04,VALID,1009.35,VALID,0,VALID,102.17,VALID,0,VALID,24.454,VALID,151,VALID,0.399609,
2010-05-26, 00:31:04,VALID,1009.33,VALID,0,VALID,102.216,VALID,0,VALID,24.454,VALID,136,VALID,0.748828,
2010-05-26, 00:32:04,VALID,1009.27,VALID,0,VALID,102.246,VALID,0.105969,VALID,24.4735,VALID,126,VALID,0.689453,
2010-05-26, 00:33:04,VALID,1009.25,VALID,0,VALID,102.261,VALID,0,VALID,24.4717,VALID,120,VALID,0.359375,
2010-05-26, 00:34:04,VALID,1009.26,VALID,0,VALID,102.261,VALID,0.105969,VALID,24.4735,VALID,159,VALID,0.644922,
2010-05-26, 00:35:04,VALID,1009.22,VALID,0,VALID,102.269,VALID,0,VALID,24.4735,VALID,146,VALID,0.392578,
2010-05-26, 00:36:04,VALID,1009.21,VALID,0,VALID,102.284,VALID,0,VALID,24.4522,VALID,146,VALID,0.266016,
2010-05-26, 00:37:04,VALID,1009.19,VALID,0,VALID,102.292,VALID,0,VALID,24.4327,VALID,146,VALID,0.0132813,
2010-05-26, 00:38:04,VALID,1009.19,VALID,0,VALID,102.261,VALID,0.105969,VALID,24.4327,VALID,146,VALID,0,
2010-05-26, 00:39:04,VALID,1009.18,VALID,0,VALID,102.292,VALID,0.105969,VALID,24.4327,VALID,146,VALID,0,
2010-05-26, 00:40:04,VALID,1009.18,VALID,0,VALID,102.307,VALID,0.105969,VALID,24.4327,VALID,146,VALID,0,
2010-05-26, 00:41:04,VALID,1009.16,VALID,0,VALID,102.315,VALID,0.105969,VALID,24.4522,VALID,146,VALID,0,
2010-05-26, 00:42:04,VALID,1009.17,VALID,0,VALID,102.299,VALID,0.105969,VALID,24.4308,VALID,146,VALID,0.00546875,
2010-05-26, 00:43:04,VALID,1009.15,VALID,0,VALID,102.322,VALID,0.105969,VALID,24.4735,VALID,146,VALID,0,
2010-05-26, 00:44:04,VALID,1009.16,VALID,0,VALID,102.345,VALID,0,VALID,24.4717,VALID,146,VALID,0,
2010-05-26, 00:45:04,VALID,1009.14,VALID,0,VALID,102.368,VALID,0.105969,VALID,24.4911,VALID,146,VALID,0,
2010-05-26, 00:46:04,VALID,1009.16,VALID,0,VALID,102.353,VALID,0,VALID,24.4522,VALID,146,VALID,0,
2010-05-26, 00:47:04,VALID,1009.15,VALID,0,VALID,102.345,VALID,0,VALID,24.4717,VALID,147,VALID,0,
2010-05-26, 00:48:04,VALID,1009.14,VALID,0,VALID,102.353,VALID,0,VALID,24.4735,VALID,148,VALID,0,
2010-05-26, 00:49:04,VALID,1009.16,VALID,0,VALID,102.383,VALID,0,VALID,24.4717,VALID,148,VALID,0,
2010-05-26, 00:50:04,VALID,1009.16,VALID,0,VALID,102.391,VALID,0,VALID,24.4522,VALID,148,VALID,0,
2010-05-26, 00:51:04,VALID,1009.16,VALID,0,VALID,102.414,VALID,0,VALID,24.4735,VALID,148,VALID,0,
2010-05-26, 00:52:04,VALID,1009.18,VALID,0,VALID,102.406,VALID,0,VALID,24.4522,VALID,148,VALID,0,
2010-05-26, 00:53:04,VALID,1009.14,VALID,0,VALID,102.376,VALID,0,VALID,24.493,VALID,148,VALID,0,
2010-05-26, 00:54:04,VALID,1009.13,VALID,0,VALID,102.421,VALID,0,VALID,24.4911,VALID,148,VALID,0,
2010-05-26, 00:55:04,VALID,1009.12,VALID,0,VALID,102.421,VALID,0.105969,VALID,24.4911,VALID,148,VALID,0,
2010-05-26, 00:56:04,VALID,1009.1,VALID,0,VALID,102.444,VALID,0,VALID,24.5125,VALID,148,VALID,0,
2010-05-26, 00:57:04,VALID,1009.05,VALID,0,VALID,102.444,VALID,0,VALID,24.5106,VALID,108,VALID,0,
2010-05-26, 00:58:04,VALID,1009.05,VALID,0,VALID,102.437,VALID,0,VALID,24.5515,VALID,107,VALID,0,
2010-05-26, 00:59:04,VALID,1009.05,VALID,0,VALID,102.437,VALID,0,VALID,24.5496,VALID,135,VALID,0.142188,
2010-05-26, 01:00:04,VALID,1009.01,VALID,0,VALID,102.437,VALID,0,VALID,24.571,VALID,98,VALID,0.626172,
2010-05-26, 01:01:04,VALID,1008.96,VALID,0,VALID,102.444,VALID,0,VALID,24.5905,VALID,61,VALID,0.691016,
2010-05-26, 01:02:04,VALID,1008.93,VALID,0,VALID,102.399,VALID,0,VALID,24.5496,VALID,72,VALID,0.597266,
2010-05-26, 01:03:04,VALID,1008.95,VALID,0,VALID,102.406,VALID,0.105969,VALID,24.5496,VALID,67,VALID,1.03906,
2010-05-26, 01:04:04,VALID,1008.9,VALID,0,VALID,102.345,VALID,0.105969,VALID,24.5301,VALID,53,VALID,0.735547,
2010-05-26, 01:05:04,VALID,1008.87,VALID,0,VALID,102.315,VALID,0.105969,VALID,24.5106,VALID,78,VALID,0.611719,
2010-05-26, 01:06:04,VALID,1008.89,VALID,0,VALID,102.292,VALID,0,VALID,24.493,VALID,46,VALID,0.946484,
2010-05-26, 01:07:04,VALID,1008.88,VALID,0,VALID,102.292,VALID,0,VALID,24.4522,VALID,15,VALID,0.775,
2010-05-26, 01:08:04,VALID,1008.87,VALID,0,VALID,102.307,VALID,0,VALID,24.454,VALID,31,VALID,0.861719,
2010-05-26, 01:09:04,VALID,1008.85,VALID,0,VALID,102.284,VALID,0.105969,VALID,24.415,VALID,26,VALID,0.876953,
2010-05-26, 01:10:04,VALID,1008.84,VALID,0,VALID,102.322,VALID,0,VALID,24.3352,VALID,40,VALID,1.08633,
2010-05-26, 01:11:04,VALID,1008.79,VALID,0,VALID,102.322,VALID,0,VALID,24.3176,VALID,28,VALID,1.11289,
2010-05-26, 01:12:04,VALID,1008.76,VALID,0,VALID,102.338,VALID,0.105969,VALID,24.2981,VALID,11,VALID,0.548047,
2010-05-26, 01:13:04,VALID,1008.71,VALID,0,VALID,102.383,VALID,0.105969,VALID,24.2573,VALID,40,VALID,0.426172,
2010-05-26, 01:14:04,VALID,1008.68,VALID,0,VALID,102.414,VALID,0,VALID,24.2183,VALID,329,VALID,0.394531,
2010-05-26, 01:15:04,VALID,1008.62,VALID,0,VALID,102.429,VALID,0.105969,VALID,24.2183,VALID,22,VALID,0.245703,
2010-05-26, 01:16:04,VALID,1008.59,VALID,0,VALID,102.475,VALID,0,VALID,24.2202,VALID,22,VALID,0.20625,
2010-05-26, 01:17:04,VALID,1008.55,VALID,0,VALID,102.475,VALID,0,VALID,24.1793,VALID,11,VALID,0,
2010-05-26, 01:18:04,VALID,1008.52,VALID,0,VALID,102.513,VALID,0,VALID,24.2007,VALID,15,VALID,0.289063,
2010-05-26, 01:19:04,VALID,1008.53,VALID,0,VALID,102.513,VALID,0,VALID,24.1812,VALID,354,VALID,0.348047,
2010-05-26, 01:20:04,VALID,1008.55,VALID,0,VALID,102.528,VALID,0,VALID,24.1599,VALID,329,VALID,0.00585938,
2010-05-26, 01:21:04,VALID,1008.59,VALID,0,VALID,102.544,VALID,0.105969,VALID,24.1617,VALID,329,VALID,0.273438,
2010-05-26, 01:22:04,VALID,1008.63,VALID,0,VALID,102.544,VALID,0,VALID,24.1422,VALID,329,VALID,0,
2010-05-26, 01:23:04,VALID,1008.64,VALID,0,VALID,102.551,VALID,0,VALID,24.1617,VALID,329,VALID,0.00390625,
2010-05-26, 01:24:04,VALID,1008.69,VALID,0,VALID,102.574,VALID,0,VALID,24.1209,VALID,329,VALID,0,
2010-05-26, 01:25:04,VALID,1008.67,VALID,0,VALID,102.574,VALID,0.105969,VALID,24.1617,VALID,70,VALID,0.419922,
2010-05-26, 01:26:04,VALID,1008.7,VALID,0,VALID,102.582,VALID,0,VALID,24.1422,VALID,72,VALID,0.383203,
2010-05-26, 01:27:04,VALID,1008.74,VALID,0,VALID,102.582,VALID,0.105969,VALID,24.1209,VALID,72,VALID,0,
2010-05-26, 01:28:04,VALID,1008.73,VALID,0,VALID,102.589,VALID,0.105969,VALID,24.1014,VALID,72,VALID,0.147266,
2010-05-26, 01:29:04,VALID,1008.76,VALID,0,VALID,102.589,VALID,0,VALID,24.1209,VALID,72,VALID,0,
2010-05-26, 01:30:04,VALID,1008.73,VALID,0,VALID,102.589,VALID,0,VALID,24.1209,VALID,72,VALID,0,
2010-05-26, 01:31:04,VALID,1008.76,VALID,0,VALID,102.589,VALID,0.105969,VALID,24.1209,VALID,72,VALID,0,
2010-05-26, 01:32:04,VALID,1008.76,VALID,0,VALID,102.62,VALID,0.105969,VALID,24.1209,VALID,72,VALID,0,
2010-05-26, 01:33:04,VALID,1008.73,VALID,0,VALID,102.62,VALID,0,VALID,24.1209,VALID,72,VALID,0,
2010-05-26, 01:34:04,VALID,1008.74,VALID,0,VALID,102.597,VALID,0,VALID,24.1209,VALID,72,VALID,0,
2010-05-26, 01:35:04,VALID,1008.72,VALID,0,VALID,102.635,VALID,0.105969,VALID,24.1209,VALID,31,VALID,0.494531,
2010-05-26, 01:36:04,VALID,1008.69,VALID,0,VALID,102.605,VALID,0,VALID,24.1014,VALID,33,VALID,0.282813,
2010-05-26, 01:37:04,VALID,1008.72,VALID,0,VALID,102.62,VALID,0.105969,VALID,24.1014,VALID,45,VALID,0.366406,
2010-05-26, 01:38:04,VALID,1008.68,VALID,0,VALID,102.643,VALID,0,VALID,24.1014,VALID,49,VALID,0.579687,
2010-05-26, 01:39:04,VALID,1008.67,VALID,0,VALID,102.612,VALID,0,VALID,24.1014,VALID,48,VALID,0.439453,
2010-05-26, 01:40:04,VALID,1008.68,VALID,0,VALID,102.627,VALID,0,VALID,24.1014,VALID,49,VALID,0.546484,
2010-05-26, 01:41:04,VALID,1008.72,VALID,0,VALID,102.62,VALID,0.105969,VALID,24.1014,VALID,62,VALID,0.142188,
2010-05-26, 01:42:04,VALID,1008.71,VALID,0,VALID,102.612,VALID,0.105969,VALID,24.1014,VALID,70,VALID,0.209375,
2010-05-26, 01:43:04,VALID,1008.71,VALID,0,VALID,102.605,VALID,0,VALID,24.1209,VALID,70,VALID,0,
2010-05-26, 01:44:04,VALID,1008.72,VALID,0,VALID,102.627,VALID,0.105969,VALID,24.1014,VALID,70,VALID,0.177734,
2010-05-26, 01:45:04,VALID,1008.71,VALID,0,VALID,102.62,VALID,0.105969,VALID,24.1014,VALID,70,VALID,0,
2010-05-26, 01:46:04,VALID,1008.7,VALID,0,VALID,102.612,VALID,0.105969,VALID,24.1209,VALID,357,VALID,0.379297,
2010-05-26, 01:47:04,VALID,1008.69,VALID,0,VALID,102.643,VALID,0.105969,VALID,24.1209,VALID,335,VALID,0.416797,
2010-05-26, 01:48:04,VALID,1008.68,VALID,0,VALID,102.635,VALID,0.105969,VALID,24.1209,VALID,332,VALID,0.402344,
2010-05-26, 01:49:04,VALID,1008.65,VALID,0,VALID,102.612,VALID,0.105969,VALID,24.1209,VALID,325,VALID,0.571875,
2010-05-26, 01:50:04,VALID,1008.67,VALID,0,VALID,102.605,VALID,0.105969,VALID,24.1014,VALID,310,VALID,0.3125,
2010-05-26, 01:51:04,VALID,1008.65,VALID,0,VALID,102.62,VALID,0.105969,VALID,24.1014,VALID,310,VALID,0.213281,
2010-05-26, 01:52:04,VALID,1008.67,VALID,0,VALID,102.643,VALID,0.105969,VALID,24.1209,VALID,21,VALID,0.0992187,
2010-05-26, 01:53:04,VALID,1008.67,VALID,0,VALID,102.605,VALID,0.105969,VALID,24.1014,VALID,21,VALID,0.0789063,
2010-05-26, 01:54:04,VALID,1008.66,VALID,0,VALID,102.62,VALID,0,VALID,24.1014,VALID,21,VALID,0,
2010-05-26, 01:55:04,VALID,1008.65,VALID,0,VALID,102.612,VALID,0,VALID,24.1014,VALID,21,VALID,0.00351562,
2010-05-26, 01:56:04,VALID,1008.6,VALID,0,VALID,102.627,VALID,0,VALID,24.1014,VALID,21,VALID,0.118359,
2010-05-26, 01:57:04,VALID,1008.61,VALID,0,VALID,102.627,VALID,0,VALID,24.0819,VALID,21,VALID,0,
2010-05-26, 01:58:04,VALID,1008.59,VALID,0,VALID,102.612,VALID,0,VALID,24.1014,VALID,124,VALID,0.375391,
2010-05-26, 01:59:04,VALID,1008.56,VALID,0,VALID,102.62,VALID,0.105969,VALID,24.1014,VALID,124,VALID,0.183203,
2010-05-26, 02:00:04,VALID,1008.53,VALID,0,VALID,102.612,VALID,0,VALID,24.1209,VALID,124,VALID,0.161719,
2010-05-26, 02:01:04,VALID,1008.5,VALID,0,VALID,102.612,VALID,0.105969,VALID,24.1209,VALID,124,VALID,0,
2010-05-26, 02:02:04,VALID,1008.49,VALID,0,VALID,102.612,VALID,0,VALID,24.1209,VALID,124,VALID,0,
2010-05-26, 02:03:04,VALID,1008.47,VALID,0,VALID,102.62,VALID,0.105969,VALID,24.1404,VALID,124,VALID,0.2125,
2010-05-26, 02:04:04,VALID,1008.45,VALID,0,VALID,102.627,VALID,0.105969,VALID,24.1404,VALID,124,VALID,0.318359,
2010-05-26, 02:05:04,VALID,1008.44,VALID,0,VALID,102.627,VALID,0,VALID,24.1404,VALID,124,VALID,0,
2010-05-26, 02:06:04,VALID,1008.45,VALID,0,VALID,102.627,VALID,0.105969,VALID,24.1404,VALID,124,VALID,0,
2010-05-26, 02:07:04,VALID,1008.45,VALID,0,VALID,102.635,VALID,0,VALID,24.1404,VALID,124,VALID,0,
2010-05-26, 02:08:04,VALID,1008.49,VALID,0,VALID,102.612,VALID,0,VALID,24.1404,VALID,124,VALID,0,
2010-05-26, 02:09:04,VALID,1008.51,VALID,0,VALID,102.605,VALID,0.105969,VALID,24.1599,VALID,140,VALID,0.594531,
2010-05-26, 02:10:04,VALID,1008.53,VALID,0,VALID,102.605,VALID,0,VALID,24.1599,VALID,141,VALID,0.585547,
2010-05-26, 02:11:04,VALID,1008.51,VALID,0,VALID,102.597,VALID,0,VALID,24.1599,VALID,141,VALID,0.829687,
2010-05-26, 02:12:04,VALID,1008.49,VALID,0,VALID,102.605,VALID,0,VALID,24.2007,VALID,141,VALID,1.04453,
2010-05-26, 02:13:04,VALID,1008.49,VALID,0,VALID,102.612,VALID,0.105969,VALID,24.1793,VALID,137,VALID,0.742578,
2010-05-26, 02:14:04,VALID,1008.45,VALID,0,VALID,102.612,VALID,0,VALID,24.1793,VALID,118,VALID,0.682422,
2010-05-26, 02:15:04,VALID,1008.4,VALID,0,VALID,102.605,VALID,0,VALID,24.2007,VALID,101,VALID,0.814844,
2010-05-26, 02:16:04,VALID,1008.37,VALID,0,VALID,102.605,VALID,0,VALID,24.2183,VALID,118,VALID,0.610937,
2010-05-26, 02:17:04,VALID,1008.35,VALID,0,VALID,102.605,VALID,0,VALID,24.2202,VALID,113,VALID,0.719922,
2010-05-26, 02:18:04,VALID,1008.3,VALID,0,VALID,102.612,VALID,0,VALID,24.1988,VALID,124,VALID,1.05352,
2010-05-26, 02:19:04,VALID,1008.31,VALID,0,VALID,102.597,VALID,0,VALID,24.1793,VALID,127,VALID,0.723437,
2010-05-26, 02:20:04,VALID,1008.31,VALID,0,VALID,102.62,VALID,0.105969,VALID,24.1793,VALID,146,VALID,1.2,
2010-05-26, 02:21:04,VALID,1008.31,VALID,0,VALID,102.605,VALID,0.105969,VALID,24.2007,VALID,156,VALID,1.2125,
2010-05-26, 02:22:04,VALID,1008.29,VALID,0,VALID,102.62,VALID,0,VALID,24.1617,VALID,132,VALID,1.23672,
2010-05-26, 02:23:04,VALID,1008.27,VALID,0,VALID,102.597,VALID,0,VALID,24.1617,VALID,132,VALID,0.941016,
2010-05-26, 02:24:04,VALID,1008.22,VALID,0,VALID,102.605,VALID,0,VALID,24.1422,VALID,126,VALID,1.27109,
2010-05-26, 02:25:04,VALID,1008.21,VALID,0,VALID,102.582,VALID,0.105969,VALID,24.1209,VALID,133,VALID,1.47578,
2010-05-26, 02:26:04,VALID,1008.17,VALID,0,VALID,102.612,VALID,0.105969,VALID,24.1014,VALID,129,VALID,1.31992,
2010-05-26, 02:27:04,VALID,1008.1,VALID,0,VALID,102.612,VALID,0,VALID,24.1227,VALID,149,VALID,1.0957,
2010-05-26, 02:28:04,VALID,1008.08,VALID,0,VALID,102.589,VALID,0,VALID,24.0819,VALID,137,VALID,1.24805,
2010-05-26, 02:29:04,VALID,1008.06,VALID,0,VALID,102.589,VALID,0,VALID,24.0819,VALID,157,VALID,1.12617,
2010-05-26, 02:30:04,VALID,1008.02,VALID,0,VALID,102.62,VALID,0,VALID,24.1014,VALID,132,VALID,1.00586,
2010-05-26, 02:31:04,VALID,1007.97,VALID,0,VALID,102.605,VALID,0,VALID,24.1014,VALID,158,VALID,0.730078,
2010-05-26, 02:32:04,VALID,1007.95,VALID,0,VALID,102.62,VALID,0,VALID,24.1032,VALID,138,VALID,0.955469,
2010-05-26, 02:33:04,VALID,1007.92,VALID,0,VALID,102.597,VALID,0,VALID,24.144,VALID,146,VALID,0.733203,
2010-05-26, 02:34:04,VALID,1007.92,VALID,0,VALID,102.605,VALID,0,VALID,24.1422,VALID,170,VALID,0.651172,
2010-05-26, 02:35:04,VALID,1007.89,VALID,0,VALID,102.597,VALID,0,VALID,24.1617,VALID,151,VALID,1.01484,
2010-05-26, 02:36:04,VALID,1007.91,VALID,0,VALID,102.605,VALID,0,VALID,24.1812,VALID,139,VALID,0.801172,
2010-05-26, 02:37:04,VALID,1007.9,VALID,0,VALID,102.605,VALID,0,VALID,24.2007,VALID,141,VALID,0.954297,
2010-05-26, 02:38:04,VALID,1007.9,VALID,0,VALID,102.597,VALID,0,VALID,24.2202,VALID,112,VALID,1.46289,
2010-05-26, 02:39:04,VALID,1007.89,VALID,0,VALID,102.605,VALID,0,VALID,24.2591,VALID,134,VALID,1.92188,
2010-05-26, 02:40:04,VALID,1007.9,VALID,0,VALID,102.605,VALID,0,VALID,24.3,VALID,140,VALID,1.23438,
2010-05-26, 02:41:04,VALID,1007.88,VALID,0,VALID,102.62,VALID,0,VALID,24.2786,VALID,115,VALID,1.03867,
2010-05-26, 02:42:04,VALID,1007.87,VALID,0,VALID,102.62,VALID,0,VALID,24.2981,VALID,108,VALID,0.91875,
2010-05-26, 02:43:04,VALID,1007.85,VALID,0,VALID,102.605,VALID,0,VALID,24.3176,VALID,129,VALID,0.754297,
2010-05-26, 02:44:04,VALID,1007.84,VALID,0,VALID,102.62,VALID,0,VALID,24.3176,VALID,114,VALID,0.626562,
2010-05-26, 02:45:04,VALID,1007.83,VALID,0,VALID,102.605,VALID,0,VALID,24.3371,VALID,115,VALID,0.981641,
2010-05-26, 02:46:04,VALID,1007.78,VALID,0,VALID,102.574,VALID,0,VALID,24.3566,VALID,98,VALID,0.691406,
2010-05-26, 02:47:04,VALID,1007.76,VALID,0,VALID,102.574,VALID,0.105969,VALID,24.3352,VALID,88,VALID,0.658984,
2010-05-26, 02:48:04,VALID,1007.74,VALID,0,VALID,102.589,VALID,0.105969,VALID,24.3352,VALID,103,VALID,0.857031,
2010-05-26, 02:49:04,VALID,1007.72,VALID,0,VALID,102.582,VALID,0.105969,VALID,24.3566,VALID,108,VALID,0.860937,
2010-05-26, 02:50:04,VALID,1007.73,VALID,0,VALID,102.582,VALID,0,VALID,24.3761,VALID,110,VALID,0.682031,
2010-05-26, 02:51:04,VALID,1007.69,VALID,0,VALID,102.566,VALID,0,VALID,24.3547,VALID,104,VALID,0.70625,
2010-05-26, 02:52:04,VALID,1007.7,VALID,0,VALID,102.566,VALID,0.105969,VALID,24.3761,VALID,104,VALID,1.39375,
2010-05-26, 02:53:04,VALID,1007.69,VALID,0,VALID,102.559,VALID,0.105969,VALID,24.415,VALID,103,VALID,0.892187,
2010-05-26, 02:54:04,VALID,1007.66,VALID,0,VALID,102.582,VALID,0,VALID,24.4132,VALID,89,VALID,1.27266,
2010-05-26, 02:55:04,VALID,1007.65,VALID,0,VALID,102.551,VALID,0.105969,VALID,24.4132,VALID,95,VALID,1.20898,
2010-05-26, 02:56:04,VALID,1007.64,VALID,0,VALID,102.566,VALID,0,VALID,24.4327,VALID,90,VALID,1.01328,
2010-05-26, 02:57:04,VALID,1007.67,VALID,0,VALID,102.559,VALID,0.105969,VALID,24.4327,VALID,79,VALID,1.37383,
2010-05-26, 02:58:04,VALID,1007.69,VALID,0,VALID,102.566,VALID,0,VALID,24.4327,VALID,86,VALID,1.44453,
2010-05-26, 02:59:04,VALID,1007.73,VALID,0,VALID,102.544,VALID,0,VALID,24.4132,VALID,96,VALID,1.34922,
2010-05-26, 03:00:04,VALID,1007.75,VALID,0,VALID,102.536,VALID,0.105969,VALID,24.4327,VALID,96,VALID,1.13086,
2010-05-26, 03:01:04,VALID,1007.76,VALID,0,VALID,102.551,VALID,0.105969,VALID,24.3937,VALID,81,VALID,1.63203,
2010-05-26, 03:02:04,VALID,1007.75,VALID,0,VALID,102.559,VALID,0,VALID,24.415,VALID,88,VALID,1.24063,
2010-05-26, 03:03:04,VALID,1007.74,VALID,0,VALID,102.528,VALID,0.105969,VALID,24.3742,VALID,98,VALID,0.773828,
2010-05-26, 03:04:04,VALID,1007.7,VALID,0,VALID,102.536,VALID,0.105969,VALID,24.3937,VALID,125,VALID,0.382813,
2010-05-26, 03:05:04,VALID,1007.64,VALID,0,VALID,102.559,VALID,0.105969,VALID,24.3937,VALID,60,VALID,1.71563,
2010-05-26, 03:06:04,VALID,1007.65,VALID,0.5,VALID,102.559,VALID,0.105969,VALID,24.3742,VALID,78,VALID,1.38789,
2010-05-26, 03:07:04,VALID,1007.6,VALID,0,VALID,102.536,VALID,0.105969,VALID,24.3742,VALID,74,VALID,1.24844,
2010-05-26, 03:08:04,VALID,1007.6,VALID,0,VALID,102.544,VALID,0.105969,VALID,24.3742,VALID,70,VALID,0.88125,
2010-05-26, 03:09:04,VALID,1007.59,VALID,0,VALID,102.566,VALID,0.105969,VALID,24.3742,VALID,79,VALID,1.17344,
2010-05-26, 03:10:04,VALID,1007.6,VALID,0,VALID,102.582,VALID,0.105969,VALID,24.3742,VALID,89,VALID,1.53164,
2010-05-26, 03:11:04,VALID,1007.61,VALID,0,VALID,102.566,VALID,0.105969,VALID,24.3547,VALID,84,VALID,1.07617,
2010-05-26, 03:12:04,VALID,1007.64,VALID,0,VALID,102.559,VALID,0.105969,VALID,24.3742,VALID,88,VALID,1.17109,
2010-05-26, 03:13:04,VALID,1007.68,VALID,0,VALID,102.566,VALID,0.105969,VALID,24.3742,VALID,85,VALID,1.2332,
2010-05-26, 03:14:04,VALID,1007.72,VALID,0,VALID,102.566,VALID,0.105969,VALID,24.3742,VALID,99,VALID,1.15898,
2010-05-26, 03:15:04,VALID,1007.73,VALID,0,VALID,102.582,VALID,0.105969,VALID,24.3742,VALID,107,VALID,0.548828,
2010-05-26, 03:16:04,VALID,1007.81,VALID,0,VALID,102.574,VALID,0,VALID,24.3761,VALID,96,VALID,0.648438,
2010-05-26, 03:17:04,VALID,1007.83,VALID,0,VALID,102.566,VALID,0.105969,VALID,24.3742,VALID,87,VALID,0.937891,
2010-05-26, 03:18:04,VALID,1007.84,VALID,0,VALID,102.566,VALID,0,VALID,24.3956,VALID,92,VALID,0.514063,
2010-05-26, 03:19:04,VALID,1007.86,VALID,0,VALID,102.574,VALID,0.105969,VALID,24.3937,VALID,109,VALID,1.35469,
2010-05-26, 03:20:04,VALID,1007.86,VALID,0,VALID,102.582,VALID,0.105969,VALID,24.3937,VALID,79,VALID,0.638672,
2010-05-26, 03:21:04,VALID,1007.87,VALID,0,VALID,102.574,VALID,0.105969,VALID,24.415,VALID,83,VALID,1.22227,
2010-05-26, 03:22:04,VALID,1007.88,VALID,0,VALID,102.574,VALID,0.105969,VALID,24.4132,VALID,59,VALID,0.766406,
2010-05-26, 03:23:04,VALID,1007.89,VALID,0,VALID,102.589,VALID,0.105969,VALID,24.3937,VALID,36,VALID,0.439063,
2010-05-26, 03:24:04,VALID,1007.9,VALID,0,VALID,102.582,VALID,0.105969,VALID,24.4132,VALID,38,VALID,0.609375,
2010-05-26, 03:25:04,VALID,1007.91,VALID,0,VALID,102.582,VALID,0.105969,VALID,24.3937,VALID,53,VALID,0.571094,
2010-05-26, 03:26:04,VALID,1007.93,VALID,0,VALID,102.566,VALID,0.105969,VALID,24.3742,VALID,65,VALID,0.500391,
2010-05-26, 03:27:04,VALID,1007.95,VALID,0,VALID,102.574,VALID,0,VALID,24.3742,VALID,40,VALID,0.7375,
2010-05-26, 03:28:04,VALID,1007.95,VALID,0,VALID,102.566,VALID,0,VALID,24.3742,VALID,9,VALID,0.239844,
2010-05-26, 03:29:04,VALID,1007.96,VALID,0,VALID,102.574,VALID,0.105969,VALID,24.3547,VALID,9,VALID,0,
2010-05-26, 03:30:04,VALID,1007.98,VALID,0,VALID,102.574,VALID,0.105969,VALID,24.3547,VALID,28,VALID,0.277344,
2010-05-26, 03:31:04,VALID,1007.98,VALID,0,VALID,102.582,VALID,0.105969,VALID,24.3547,VALID,82,VALID,0.361719,
2010-05-26, 03:32:04,VALID,1008,VALID,0,VALID,102.582,VALID,0,VALID,24.3566,VALID,95,VALID,0.458203,
2010-05-26, 03:33:04,VALID,1007.99,VALID,0,VALID,102.582,VALID,0,VALID,24.3566,VALID,32,VALID,0.115234,
2010-05-26, 03:34:04,VALID,1008.03,VALID,0,VALID,102.582,VALID,0,VALID,24.3371,VALID,31,VALID,0,
2010-05-26, 03:35:04,VALID,1008.02,VALID,0,VALID,102.566,VALID,0,VALID,24.3371,VALID,31,VALID,0,
2010-05-26, 03:36:04,VALID,1008.06,VALID,0,VALID,102.605,VALID,0,VALID,24.3566,VALID,31,VALID,0.00351562,
2010-05-26, 03:37:04,VALID,1008.05,VALID,0,VALID,102.582,VALID,0,VALID,24.3371,VALID,31,VALID,0.0726563,
2010-05-26, 03:38:04,VALID,1008.1,VALID,0,VALID,102.597,VALID,0,VALID,24.3371,VALID,31,VALID,0,
2010-05-26, 03:39:04,VALID,1008.08,VALID,0,VALID,102.62,VALID,0,VALID,24.3371,VALID,125,VALID,0.157031,
2010-05-26, 03:40:04,VALID,1008.08,VALID,0,VALID,102.589,VALID,0,VALID,24.3371,VALID,39,VALID,0.373437,
2010-05-26, 03:41:04,VALID,1008.11,VALID,0,VALID,102.605,VALID,0,VALID,24.3371,VALID,39,VALID,0,
2010-05-26, 03:42:04,VALID,1008.09,VALID,0,VALID,102.597,VALID,0,VALID,24.3584,VALID,124,VALID,0.357031,